Regional Weather Roundup
Issued by NWS Kansas City/Pleasant Hill, MO

Home | Current Version | Previous Version | Text Only | Print | Product List | Glossary On
Versions: 1 2 3 4 5 6 7 8 9 10 11 12 13 14 15 16 17 18 19 20 21 22 23 24 25 26 27 28 29 30 31 32 33 34 35 36 37 38 39 40 41 42 43 44 45 46 47 48 49 50
000
ASUS43 KEAX 281011
RWREAX

WEATHER ROUNDUP FOR EASTERN KANSAS AND NORTHWEST MISSOURI
NATIONAL WEATHER SERVICE KANSAS CITY/PLEASANT HILL MO
500 AM CDT TUE APR 28 2015

KSZ040-057-103>105-MOZ028-029-037-043-281100-
...KANSAS CITY METROPOLITAN AREA...

CITY           SKY/WX    TMP DP  RH WIND       PRES   REMARKS
K.C. INTL      PTCLDY    45  36  70 NE6       30.15R
K.C. DOWNTOWN  MOCLDY    47  40  76 CALM      30.14R
LEES SUMMIT    MOCLDY    45  37  73 N6        30.14R
OLATHE - IXD   MOCLDY    46  37  71 N6        30.14S
OLATHE - OJC   MOCLDY    49  37  63 N6        30.13R
LAWRENCE       MOCLDY    46  36  68 CALM      30.15R

$$

MOZ001>008-011>017-020>025-030>033-038>040-044>046-053-054-281100-
...NORTHERN AND CENTRAL MISSOURI...

CITY           SKY/WX    TMP DP  RH WIND       PRES   REMARKS
ST. JOSEPH     PTCLDY    41  37  86 CALM      30.16S
MOSBY          MOSUNNY   37  37 100 CALM      30.15S
WARRENSBURG    MOCLDY    43  36  75 N5        30.13S
WHITEMAN AFB   PTCLDY    41  36  83 NE2       30.12R
CLINTON        PTCLDY    43  37  81 NE6       30.12S
SEDALIA        PTCLDY    46  37  71 N5        30.14R
WARSAW         NOT AVBL
MARSHALL       CLEAR     46  39  76 N3        30.15S
CHILLICOTHE      N/A     43  38  82 CALM      30.17R
MOBERLY        CLEAR     45  36  70 N5        30.15S
KIRKSVILLE     CLEAR     38  37  97 NW3       30.15S

$$

MOZ041-047>049-056>058-063>065-088>090-097-281100-
...EASTERN AND SOUTHERN MISSOURI...

CITY           SKY/WX    TMP DP  RH WIND       PRES   REMARKS
ST. LOUIS INTL CLEAR     44  37  76 CALM      30.12R
SPIRIT OF STL  CLEAR     39  37  92 CALM      30.11S
COLUMBIA       CLEAR     44  37  76 NE8       30.12S
JEFFERSON CITY CLEAR     40  36  86 CALM      30.12S
MEXICO         CLEAR     43  43 100 NW3       30.13S
HANNIBAL       CLEAR     45  36  70 CALM      30.14S
ROLLA          CLEAR     40  35  83 NE5       30.08S
LEBANON        CLEAR     46  36  66 NE6       30.09R
OSAGE BEACH    CLEAR     45  36  70 NE7       30.09F
SPRINGFIELD    PTCLDY    40  34  79 S3        30.08R
BRANSON        CLOUDY    48  36  61 CALM      30.08R
NEVADA         PTCLDY    45  39  81 N3        30.13R
JOPLIN         PTCLDY    47  38  71 NE6       30.09S
WEST PLAINS    PTCLDY    45  36  70 NE3       30.07R

$$

IAZ060-094-KSZ022-034>040-054-083-096-NEZ052-066-093-281100-
...KANSAS...SOUTHEAST NEBRASKA AND IOWA...

CITY           SKY/WX    TMP DP  RH WIND       PRES   REMARKS
TOPEKA         MOCLDY    44  38  79 CALM      30.16R
MANHATTAN      PTCLDY    39  38  96 CALM      30.16R
EMPORIA        CLOUDY    46  38  73 N6        30.13R
CHANUTE        PTCLDY    47  39  74 N6        30.11R
WICHITA        MOCLDY    49  39  68 N9        30.13R
OMAHA          PTCLDY    40  36  86 N6        30.18R
LINCOLN        CLEAR     40  35  83 CALM      30.20R
FALLS CITY     PTCLDY    44  35  70 NW3       30.16R
LAMONI         CLEAR     44  36  73 CALM      30.16R
DES MOINES     CLEAR     47  37  68 CALM      30.16S

$$




USA.gov is the U.S. government's official web portal to all federal, state and local government web resources and services.